Location: Unspecified
(0.0000°N, 0.0000°E)
Time: 13:20:05
(UTC+00:00)

LightSail 2 - Pass Details

Date: 20 September 2019
Orbit: 699 x 732 km, 24.0° (Epoch: 17 September)

Event Time Altitude Azimuth Distance (km) Brightness Sun altitude
Exits shadow 03:56:26 11° 7° (N) 2,057 7.6 -29.3°
Drops below altitude 10° 03:56:54 10° 12° (NNE) 2,142 7.7 -29.2°
Sets 04:00:25 0° 37° (NE) 3,060 8.9 -28.3°
